Location: Oak Glen
(34.0495°N, 116.9470°E)
Time: 14:46:58
(UTC-08:00)

Vanguard 1 Rocket - Visible Passes

Search period start: 14 December 2017 00:00
Search period end: 24 December 2017 00:00
Orbit: 656 x 4222 km, 34.3° (Epoch: 13 December)

Date Brightness Start Highest point End Pass type
(mag) Time Alt. Az. Time Alt. Az. Time Alt. Az.
14 Dec 9.4 01:53:11 10° WSW 02:03:22 86° SSE 02:20:34 17° E visible
14 Dec 9.9 04:18:45 10° W 04:33:53 86° SSW 04:37:51 70° ESE visible
14 Dec 10.9 06:46:13 10° WNW 06:55:08 37° W 06:55:08 37° W visible
14 Dec 11.6 09:53:54 12° S 09:53:54 12° S 09:54:57 10° S visible
15 Dec 9.7 03:07:28 10° W 03:19:51 89° N 03:30:43 38° E visible
15 Dec 10.2 05:33:49 10° WNW 05:48:01 66° WSW 05:48:01 66° WSW visible
15 Dec 11.5 08:03:14 10° W 08:46:11 - SSE 08:05:19 14° W visible
16 Dec 9.4 01:56:35 10° W 02:06:35 90° S 02:23:40 16° E visible
16 Dec 9.9 04:22:06 10° W 04:36:56 82° SSW 04:40:58 68° SE visible
16 Dec 10.9 06:49:36 10° WNW 07:38:23 - SE 06:58:16 34° W visible
17 Dec 9.6 03:10:53 10° W 03:23:02 89° S 03:33:59 38° E visible
17 Dec 10.3 05:37:09 10° WNW 05:51:17 61° SW 05:51:17 61° SW visible
17 Dec 11.6 08:07:14 10° W 08:47:43 - SSE 08:08:36 13° W visible
18 Dec 9.3 02:00:02 10° W 02:09:52 89° N 02:27:05 15° E visible
18 Dec 9.9 04:25:28 10° WNW 04:39:55 76° SSW 04:44:24 63° SE visible
18 Dec 11.0 06:53:10 10° W 07:39:44 - SSE 07:01:43 32° WSW visible
19 Dec 9.6 03:14:17 10° W 03:26:12 85° SSW 03:37:37 35° ESE visible
19 Dec 10.4 05:40:33 10° WNW 05:54:57 55° SW 05:54:57 55° SW visible
19 Dec 11.6 08:11:50 10° W 08:48:50 - S 08:12:17 11° W visible
20 Dec 9.3 02:03:29 10° W 02:13:08 90° N 02:30:57 14° E visible
20 Dec 10.0 04:28:50 10° WNW 04:42:52 68° SSW 04:48:18 55° SSE visible
20 Dec 11.1 06:57:00 10° W 07:40:36 - SSE 07:05:39 29° WSW visible
21 Dec 9.6 03:17:42 10° W 03:29:20 79° SSW 03:41:48 31° ESE visible
21 Dec 10.5 05:44:05 10° W 05:59:10 48° SW 05:59:10 48° SW visible
21 Dec11.708:49:24S08:49:24S08:16:33Wvisible
22 Dec 9.3 02:06:56 10° W 02:16:24 87° S 02:35:31 11° ESE visible
22 Dec 10.1 04:32:16 10° W 04:45:50 60° SSW 04:52:54 46° SSE visible
22 Dec 11.2 07:01:15 10° W 07:40:50 - SSE 07:10:18 25° WSW visible
23 Dec 9.7 03:21:06 10° W 03:32:26 71° SSW 03:46:53 25° SE visible
23 Dec 10.7 05:47:50 10° W 06:02:33 39° SSW 06:04:18 39° SSW visible
23 Dec11.808:49:08S08:49:08S08:21:45WSWvisible
